Location: Newark
(40.9833°N, 0.0333°W)
Time: 00:17:56
(UTC+00:00)

Altair - Pass Details

Date: 27 October 2020
Orbit: 1502 x 1682 km, 47.2° (Epoch: 03 December)

Event Time Altitude Azimuth Distance (km) Brightness Sun altitude
Rises 12:31:39 0° 297° (WNW) 4,810 10.0 34.9°
Reaches altitude 10° 12:34:57 10° 290° (WNW) 3,847 9.6 34.7°
Maximum altitude 12:43:50 40° 226° (SW) 2,279 10.0 34.2°
Drops below altitude 10° 12:52:55 10° 161° (SSE) 3,927 10.5 33.7°
Sets 12:56:22 0° 154° (SSE) 4,919 10.7 33.4°
